When you browse on this site, cookies collect data to enhance your experience and personalize the content and advertising you see.
Visit our Privacy Policy to learn more. By continuing to use the site, you agree to this use of cookies and data.
  • In Hungary
  • List of Countries
  • For 7 days
  • Water Temperature
  • Weather Map
  • News
  • Weather Widgets
  • user-avatar
    Login

    Hourly Weather Pervoe Maya

    Today, 25 January, Saturday

    Time Temperature Precipitation Wind Pressure Humidity
    00:00 -1°C° 0.3 mm 3 mps 735 mmHg 96%
    01:00 -1°C° 0.3 mm 4 mps 735 mmHg 96%
    02:00 -1°C° 0.3 mm 4 mps 735 mmHg 97%
    03:00 -1°C° 0 mm 4 mps 735 mmHg 93%
    04:00 -1°C° 0 mm 4 mps 735 mmHg 89%
    05:00 -1°C° 0 mm 4 mps 735 mmHg 85%
    06:00 -2°C° 0 mm 4 mps 735 mmHg 85%
    07:00 -2°C° 0 mm 4 mps 735 mmHg 86%
    08:00 -2°C° 0 mm 3 mps 734 mmHg 87%
    09:00 -2°C° 0 mm 4 mps 734 mmHg 86%
    10:00 -1°C° 0 mm 4 mps 734 mmHg 85%
    11:00 -1°C° 0 mm 5 mps 733 mmHg 84%
    12:00 -1°C° 0.3 mm 5 mps 733 mmHg 80%
    13:00 -2°C° 0.3 mm 6 mps 733 mmHg 76%
    14:00 -2°C° 0 mm 6 mps 733 mmHg 74%
    15:00 -3°C° 0 mm 6 mps 733 mmHg 75%
    16:00 -3°C° 0 mm 6 mps 734 mmHg 76%
    17:00 -4°C° 0 mm 6 mps 734 mmHg 77%
    18:00 -4°C° 0 mm 6 mps 735 mmHg 80%
    19:00 -4°C° 0 mm 6 mps 735 mmHg 82%
    20:00 -5°C° 0 mm 6 mps 736 mmHg 85%
    21:00 -5°C° 0 mm 6 mps 737 mmHg 84%
    22:00 -5°C° 0 mm 6 mps 737 mmHg 82%
    23:00 -5°C° 0 mm 5 mps 738 mmHg 81%

    Tomorrow, 26 January, Sunday

    Time Temperature Precipitation Wind Pressure Humidity
    00:00 -5°C° 0 mm 5 mps 739 mmHg 81%
    01:00 -5°C° 0 mm 5 mps 740 mmHg 80%
    02:00 -6°C° 0 mm 5 mps 740 mmHg 80%
    03:00 -6°C° 0 mm 5 mps 741 mmHg 81%
    04:00 -5°C° 0 mm 4 mps 742 mmHg 81%
    05:00 -5°C° 0 mm 4 mps 743 mmHg 82%
    06:00 -5°C° 0 mm 4 mps 743 mmHg 83%
    07:00 -6°C° 0 mm 3 mps 743 mmHg 85%
    08:00 -6°C° 0 mm 3 mps 744 mmHg 86%
    09:00 -5°C° 0 mm 3 mps 744 mmHg 85%
    10:00 -4°C° 0 mm 3 mps 745 mmHg 83%
    11:00 -4°C° 0 mm 4 mps 745 mmHg 82%
    12:00 -3°C° 0 mm 4 mps 745 mmHg 80%
    13:00 -3°C° 0 mm 4 mps 744 mmHg 78%
    14:00 -3°C° 0 mm 4 mps 744 mmHg 76%
    15:00 -4°C° 0.3 mm 5 mps 743 mmHg 82%
    16:00 -4°C° 0.3 mm 5 mps 742 mmHg 88%
    17:00 -4°C° 0.3 mm 6 mps 742 mmHg 94%
    18:00 -3°C° 0.1 mm 6 mps 741 mmHg 94%
    19:00 -2°C° 0.1 mm 6 mps 741 mmHg 94%
    20:00 -1°C° 0.1 mm 6 mps 740 mmHg 94%
    21:00 -1°C° 0.2 mm 6 mps 740 mmHg 93%
    22:00 +1°C° 0.2 mm 6 mps 740 mmHg 92%
    23:00 +1°C° 0.2 mm 6 mps 740 mmHg 92%

    Day after tomorrow, 27 January, Monday

    Time Temperature Precipitation Wind Pressure Humidity
    00:00 +1°C° 0.1 mm 5 mps 741 mmHg 92%
    01:00 +1°C° 0.1 mm 5 mps 741 mmHg 93%
    02:00 +1°C° 0.1 mm 5 mps 742 mmHg 94%
    03:00 0°C° 0.2 mm 4 mps 742 mmHg 94%
    04:00 -1°C° 0.2 mm 4 mps 743 mmHg 95%
    05:00 0°C° 0.2 mm 3 mps 744 mmHg 95%
    06:00 -1°C° 0 mm 3 mps 744 mmHg 94%
    07:00 -2°C° 0 mm 2 mps 745 mmHg 93%
    08:00 -3°C° 0 mm 2 mps 746 mmHg 92%
    09:00 -3°C° 0 mm 2 mps 746 mmHg 90%
    10:00 -1°C° 0 mm 1 mps 747 mmHg 87%
    11:00 -1°C° 0 mm 1 mps 747 mmHg 85%
    12:00 -1°C° 0 mm 1 mps 747 mmHg 85%
    13:00 -3°C° 0 mm 2 mps 747 mmHg 85%
    14:00 -3°C° 0 mm 2 mps 748 mmHg 86%
    15:00 -3°C° 0.2 mm 2 mps 747 mmHg 88%
    16:00 -3°C° 0.2 mm 2 mps 747 mmHg 91%
    17:00 -4°C° 0.2 mm 3 mps 747 mmHg 94%
    18:00 -4°C° 0.6 mm 3 mps 747 mmHg 94%
    19:00 -4°C° 0.6 mm 4 mps 747 mmHg 95%
    20:00 -4°C° 0.6 mm 4 mps 747 mmHg 95%
    21:00 -4°C° 0.5 mm 4 mps 747 mmHg 95%
    22:00 -4°C° 0.5 mm 4 mps 747 mmHg 95%
    23:00 -4°C° 0.5 mm 3 mps 746 mmHg 95%

    28 January, Tuesday

    Time Temperature Precipitation Wind Pressure Humidity
    00:00 -4°C° 0.5 mm 3 mps 746 mmHg 96%
    01:00 -2°C° 0.5 mm 3 mps 746 mmHg 96%
    02:00 -2°C° 0.5 mm 2 mps 745 mmHg 97%
    03:00 -2°C° 0.4 mm 2 mps 745 mmHg 97%
    04:00 -1°C° 0.4 mm 2 mps 745 mmHg 98%
    05:00 -1°C° 0.4 mm 2 mps 744 mmHg 98%
    06:00 -1°C° 0.3 mm 2 mps 744 mmHg 98%
    07:00 -1°C° 0.3 mm 2 mps 744 mmHg 98%
    08:00 -1°C° 0.3 mm 2 mps 744 mmHg 98%
    09:00 -1°C° 0.1 mm 2 mps 744 mmHg 98%
    10:00 -1°C° 0.1 mm 2 mps 744 mmHg 98%
    11:00 -1°C° 0.1 mm 2 mps 744 mmHg 98%
    12:00 -1°C° 0.1 mm 2 mps 744 mmHg 98%
    13:00 -1°C° 0.1 mm 2 mps 743 mmHg 98%
    14:00 -1°C° 0.1 mm 2 mps 743 mmHg 97%
    15:00 -1°C° 0 mm 2 mps 743 mmHg 97%
    16:00 -1°C° 0 mm 2 mps 743 mmHg 97%
    17:00 +1°C° 0 mm 1 mps 743 mmHg 97%
    18:00 +1°C° 0 mm 1 mps 744 mmHg 96%
    19:00 0°C° 0 mm 1 mps 744 mmHg 96%
    20:00 0°C° 0 mm 1 mps 744 mmHg 96%
    21:00 0°C° 0 mm 1 mps 744 mmHg 96%
    22:00 0°C° 0 mm 1 mps 744 mmHg 95%
    23:00 0°C° 0 mm 1 mps 744 mmHg 94%

    29 January, Wednesday

    Time Temperature Precipitation Wind Pressure Humidity
    00:00 0°C° 0 mm 1 mps 744 mmHg 94%
    01:00 +1°C° 0 mm 1 mps 744 mmHg 94%
    02:00 +1°C° 0 mm 1 mps 744 mmHg 95%
    03:00 +1°C° 0 mm 1 mps 744 mmHg 95%
    04:00 -1°C° 0 mm 2 mps 744 mmHg 95%
    05:00 -1°C° 0 mm 2 mps 744 mmHg 95%
    06:00 -1°C° 0 mm 2 mps 744 mmHg 95%
    07:00 -1°C° 0 mm 2 mps 744 mmHg 95%
    08:00 -1°C° 0 mm 2 mps 744 mmHg 95%
    09:00 -1°C° 0 mm 2 mps 744 mmHg 95%
    10:00 -1°C° 0 mm 2 mps 744 mmHg 95%
    11:00 +1°C° 0 mm 2 mps 744 mmHg 95%
    12:00 +1°C° 0 mm 2 mps 743 mmHg 94%
    13:00 +1°C° 0 mm 2 mps 743 mmHg 93%
    14:00 0°C° 0 mm 3 mps 743 mmHg 93%
    15:00 0°C° 0 mm 3 mps 743 mmHg 93%
    16:00 0°C° 0 mm 3 mps 743 mmHg 94%
    17:00 -1°C° 0 mm 3 mps 742 mmHg 95%
    18:00 -1°C° 0 mm 3 mps 742 mmHg 96%
    19:00 -1°C° 0 mm 3 mps 742 mmHg 96%
    20:00 -1°C° 0 mm 3 mps 741 mmHg 96%
    21:00 -1°C° 0 mm 4 mps 741 mmHg 97%
    22:00 -1°C° 0 mm 4 mps 740 mmHg 97%
    23:00 -1°C° 0 mm 5 mps 740 mmHg 97%

    30 January, Thursday

    Time Temperature Precipitation Wind Pressure Humidity
    00:00 -1°C° 0 mm 5 mps 740 mmHg 97%
    01:00 -1°C° 0 mm 5 mps 739 mmHg 97%
    02:00 0°C° 0 mm 5 mps 739 mmHg 97%
    03:00 0°C° 0.2 mm 5 mps 738 mmHg 97%
    04:00 0°C° 0.2 mm 5 mps 738 mmHg 97%
    05:00 0°C° 0.2 mm 5 mps 737 mmHg 96%
    06:00 0°C° 0.2 mm 5 mps 737 mmHg 97%
    07:00 0°C° 0.2 mm 5 mps 737 mmHg 97%
    08:00 0°C° 0.2 mm 5 mps 736 mmHg 97%
    09:00 0°C° 0.3 mm 4 mps 736 mmHg 97%
    10:00 0°C° 0.3 mm 4 mps 736 mmHg 97%
    11:00 -1°C° 0.3 mm 4 mps 736 mmHg 97%
    12:00 -1°C° 0.7 mm 4 mps 736 mmHg 98%
    13:00 0°C° 0.7 mm 3 mps 736 mmHg 98%
    14:00 0°C° 0.7 mm 3 mps 736 mmHg 98%
    15:00 0°C° 0.4 mm 3 mps 736 mmHg 97%
    16:00 -1°C° 0.4 mm 3 mps 736 mmHg 97%
    17:00 -1°C° 0.4 mm 3 mps 736 mmHg 96%
    18:00 -1°C° 0.1 mm 3 mps 736 mmHg 95%
    19:00 -1°C° 0.1 mm 3 mps 736 mmHg 94%
    20:00 -2°C° 0.1 mm 3 mps 736 mmHg 92%
    21:00 -2°C° 0 mm 3 mps 736 mmHg 93%
    22:00 -2°C° 0 mm 3 mps 736 mmHg 93%
    23:00 -2°C° 0 mm 3 mps 736 mmHg 94%
    Show more